This is the latest recevied weather packets stored in our database for station/object W1QED. If no packets are shown the sender has not sent any weather packets the latest 10 day(s).
| Time | Temp. | Humidity | Pressure | Rain* | Wind** | Luminosity | Snow |
|---|---|---|---|---|---|---|---|
| 1777486522 | 13.89° C | 51% | 1015.1 hPa | 0 mm | - | - | - |
| 1777486220 | 13.33° C | 52% | 1015.2 hPa | 0 mm | - | - | - |
| 1777485919 | 13.33° C | 49% | 1015.2 hPa | 0 mm | - | - | - |
| 1777485618 | 13.33° C | 53% | 1015.2 hPa | 0 mm | - | - | - |
| 1777485318 | 13.33° C | 52% | 1015.3 hPa | 0 mm | - | - | - |
| 1777485015 | 12.78° C | 52% | 1015.2 hPa | 0 mm | - | - | - |
| 1777484714 | 12.78° C | 52% | 1015.3 hPa | 0 mm | - | - | - |
| 1777484412 | 12.78° C | 52% | 1015.3 hPa | 0 mm | - | - | - |
| 1777484113 | 12.78° C | 53% | 1015.3 hPa | 0 mm | - | - | - |
| 1777483813 | 12.78° C | 56% | 1015.2 hPa | 0 mm | - | - | - |
| 1777483509 | 12.78° C | 55% | 1015.3 hPa | 0 mm | - | - | - |
| 1777483208 | 12.78° C | 55% | 1015.4 hPa | 0 mm | - | - | - |
| 1777482907 | 12.78° C | 56% | 1015.6 hPa | 0 mm | - | - | - |
| 1777482607 | 12.78° C | 54% | 1015.6 hPa | 0 mm | - | - | - |
| 1777482307 | 12.22° C | 58% | 1015.6 hPa | 0 mm | - | - | - |
| 1777482005 | 12.22° C | 56% | 1015.8 hPa | 0 mm | - | - | - |
| 1777481705 | 12.22° C | 55% | 1015.8 hPa | 0 mm | - | - | - |
| 1777481404 | 12.78° C | 54% | 1015.8 hPa | 0 mm | - | - | - |
| 1777481104 | 12.22° C | 56% | 1016 hPa | 0 mm | - | - | - |
| 1777480801 | 12.22° C | 57% | 1016 hPa | 0 mm | - | - | - |
| 1777480502 | 11.67° C | 57% | 1016 hPa | 0 mm | - | - | - |
| 1777480267 | 11.67° C | 55% | 1015.9 hPa | 0 mm | - | - | - |
| 1777479960 | 12.22° C | 54% | 1016 hPa | 0 mm | - | - | - |
| 1777479902 | 12.22° C | 56% | 1015.8 hPa | 0 mm | - | - | - |
| 1777479658 | 12.22° C | 58% | 1015.8 hPa | 0 mm | - | - | - |
* Rain latest hour (hover to see other rain measurements)
** Current wind speed in m/s (hover to see current wind gust speed)